Location: *
(37.5724°S, 58.0067°E)
Time: 02:39:15
(UTC+00:00)

CZ-3A R/B - Pass Details

Date: 22 January 2021
Orbit: 1323 x 30224 km, 55.5° (Epoch: 06 March)

Event Time Altitude Azimuth Distance (km) Brightness Sun altitude
Rises 15:10:48 0° 36° (NE) 29,815 10.0 2.2°
Reaches altitude 10° 16:09:07 10° 44° (NE) 21,100 9.2 -8.0°
Maximum altitude 16:49:21 16° 66° (ENE) 12,652 8.1 -14.5°
Drops below altitude 10° 17:07:10 10° 94° (E) 8,913 7.5 -17.2°
Sets 17:14:53 0° 113° (ESE) 7,963 7.5 -18.3°
